Weather History for Glasgow, MT

Change the Weather History Date:

Tuesday, January 28, 2014

  Actual Average Record
Temperature  
Mean Temperature 10 °F 15 °F  
Max Temperature 25 °F 25 °F 57 °F (1992)
Min Temperature -6 °F 5 °F -41 °F (1929)
Degree Days  
Heating Degree Days 55 50  
Month to date heating degree days 1269 1440  
Since 1 July heating degree days 4959 4942  
Cooling Degree Days 0 0  
Month to date cooling degree days 0 0  
Year to date cooling degree days 0 0  
Moisture  
Dew Point 2 °F    
Average Humidity 67    
Maximum Humidity 88    
Minimum Humidity 46    
Precipitation  
Precipitation 0.00 in 0.00 in 0.25 in (1904)
Month to date precipitation 0.06 0.34  
Year to date precipitation 0.06 0.34  
Snow  
Snow 0.00 in 0.20 in 5.50 in (2004)
Month to date snowfall 0.4 7.4  
Since 1 July snowfall 19.2 22.0  
Snow Depth 0.00 in    
Sea Level Pressure  
Sea Level Pressure 30.20 in    
Wind  
Wind Speed 6 mph (SE)    
Max Wind Speed 13 mph    
Max Gust Speed 16 mph    
Visibility 10 miles    
Events      
T = Trace of Precipitation, MM = Missing Value Source: NWS Daily Summary

Daily Weather History Graph

Daily Weather History Graph

Search for Another Location

Airport:

Trip Planner

Search our weather history database for the weather conditions in past years. The results will help you decide how hot, cold, wet, or windy it might be!

Date:

Astronomy

Jan. 28, 2014 Rise Set
Actual Time 7:39 AM MST 4:59 PM MST
Civil Twilight 7:05 AM MST 5:33 PM MST
Nautical Twilight 6:28 AM MST 6:11 PM MST
Astronomical Twilight 5:51 AM MST 6:48 PM MST
Moon 5:27 AM MST (1/28) 2:50 PM MST (1/28)
Length of Visible Light 10h 27m
Length of Day
9h 20m
Waning Crescent, 7% of the Moon is Illuminated
Jan 28
Waning Crescent
Jan 30
New
Feb 6
First Quarter
Feb 14
Full
Feb 22
Last Quarter

Hourly Weather History & Observations

Time (MST) Temp. Windchill Dew Point Humidity Pressure Visibility Wind Dir Wind Speed Gust Speed Precip Events Conditions
12:53 AM -4.0 °F -14.6 °F -8.0 °F 83% 30.55 in 10.0 mi WNW 4.6 mph - N/A   Clear
1:53 AM -4.0 °F -16.3 °F -9.0 °F 79% 30.52 in 10.0 mi West 5.8 mph - N/A   Clear
2:53 AM -4.0 °F -12.4 °F -9.0 °F 79% 30.51 in 10.0 mi NNW 3.5 mph - N/A   Clear
3:53 AM -2.9 °F - -9.0 °F 75% 30.47 in 10.0 mi Calm Calm - N/A   Clear
4:53 AM -5.1 °F -13.6 °F -9.0 °F 83% 30.46 in 10.0 mi SSW 3.5 mph - N/A   Clear
5:53 AM -4.0 °F -14.6 °F -9.0 °F 79% 30.44 in 10.0 mi ESE 4.6 mph - N/A   Clear
6:53 AM -5.1 °F -17.6 °F -9.0 °F 83% 30.42 in 10.0 mi ESE 5.8 mph - N/A   Clear
7:53 AM -4.0 °F -14.6 °F -9.0 °F 79% 30.41 in 10.0 mi SE 4.6 mph - N/A   Clear
8:53 AM -0.0 °F - -4.0 °F 83% 30.39 in 10.0 mi Calm Calm - N/A   Clear
9:53 AM 3.9 °F -3.4 °F -0.9 °F 80% 30.36 in 10.0 mi SSE 3.5 mph - N/A   Clear
10:53 AM 10.9 °F 4.7 °F 3.9 °F 73% 30.31 in 10.0 mi SSE 3.5 mph - N/A   Clear
11:53 AM 16.0 °F 6.3 °F 5.0 °F 62% 30.25 in 10.0 mi SE 6.9 mph - N/A   Clear
12:53 PM 19.0 °F 8.2 °F 5.0 °F 54% 30.19 in 10.0 mi SE 9.2 mph - N/A   Clear
1:53 PM 21.0 °F 10.6 °F 7.0 °F 55% 30.14 in 10.0 mi South 9.2 mph - N/A   Clear
2:53 PM 24.1 °F 16.0 °F 7.0 °F 48% 30.11 in 10.0 mi SSE 6.9 mph - N/A   Clear
3:53 PM 21.9 °F 12.5 °F 6.1 °F 51% 30.07 in 10.0 mi SSE 8.1 mph - N/A   Clear
4:53 PM 21.9 °F 11.7 °F 7.0 °F 53% 30.04 in 10.0 mi ESE 9.2 mph - N/A   Clear
5:53 PM 19.0 °F 6.8 °F 8.1 °F 62% 30.00 in 10.0 mi ESE 11.5 mph - N/A   Scattered Clouds
6:53 PM 18.0 °F 4.8 °F 8.1 °F 65% 29.97 in 10.0 mi ESE 12.7 mph - N/A   Clear
7:53 PM 17.1 °F 4.3 °F 10.0 °F 74% 29.94 in 10.0 mi ESE 11.5 mph - N/A   Clear
8:53 PM 15.1 °F 3.3 °F 10.0 °F 80% 29.90 in 10.0 mi SE 9.2 mph - N/A   Clear
9:53 PM 15.1 °F 5.2 °F 10.0 °F 80% 29.88 in 10.0 mi ESE 6.9 mph - N/A   Clear
10:53 PM 14.0 °F - 10.0 °F 84% 29.85 in 10.0 mi Calm Calm - N/A   Clear
11:53 PM 17.1 °F 5.8 °F 10.0 °F 74% 29.82 in 10.0 mi West 9.2 mph - N/A   Clear